TimeMST,TemperatureF,Dew PointF,Humidity,Sea Level PressureIn,VisibilityMPH,Wind Direction,Wind SpeedMPH,Gust SpeedMPH,PrecipitationIn,Events,Conditions,WindDirDegrees,DateUTC
12:15 AM,39.2,39.2,100,29.95,10.0,East,10.4,-,N/A,,Overcast,90,2013-02-21 07:15:00
12:35 AM,41.0,39.2,93,29.96,10.0,East,9.2,-,N/A,,Overcast,90,2013-02-21 07:35:00
12:55 AM,41.0,39.2,93,29.96,10.0,East,11.5,-,N/A,,Overcast,80,2013-02-21 07:55:00
1:15 AM,41.0,39.2,93,29.96,10.0,East,10.4,-,N/A,,Overcast,80,2013-02-21 08:15:00
1:35 AM,41.0,39.2,93,29.96,10.0,East,9.2,-,N/A,,Overcast,90,2013-02-21 08:35:00
1:55 AM,39.2,39.2,100,29.96,10.0,East,9.2,-,N/A,,Scattered Clouds,80,2013-02-21 08:55:00
2:15 AM,39.2,39.2,100,29.96,10.0,ENE,6.9,-,N/A,,Partly Cloudy,70,2013-02-21 09:15:00
2:35 AM,39.2,39.2,100,29.96,10.0,East,6.9,-,N/A,,Clear,80,2013-02-21 09:35:00
2:55 AM,39.2,39.2,100,29.97,9.0,ENE,5.8,-,N/A,,Clear,70,2013-02-21 09:55:00
3:15 AM,39.2,39.2,100,29.97,8.0,ENE,8.1,-,N/A,,Clear,60,2013-02-21 10:15:00
3:35 AM,39.2,39.2,100,29.98,10.0,NE,5.8,-,N/A,,Clear,50,2013-02-21 10:35:00
3:55 AM,39.2,39.2,100,29.97,10.0,ENE,8.1,-,N/A,,Clear,60,2013-02-21 10:55:00
4:15 AM,39.2,39.2,100,29.98,10.0,ENE,6.9,-,N/A,,Mostly Cloudy,60,2013-02-21 11:15:00
4:55 AM,35.6,35.6,100,29.99,5.0,NNW,4.6,-,N/A,,Overcast,340,2013-02-21 11:55:00
5:15 AM,35.6,35.6,100,29.98,5.0,North,4.6,-,N/A,,Mostly Cloudy,360,2013-02-21 12:15:00
5:35 AM,35.6,35.6,100,29.99,7.0,North,4.6,-,N/A,,Partly Cloudy,360,2013-02-21 12:35:00
5:55 AM,33.8,33.8,100,29.99,5.0,NNW,3.5,-,N/A,,Clear,340,2013-02-21 12:55:00
6:15 AM,33.8,33.8,100,29.99,5.0,North,3.5,-,N/A,,Clear,350,2013-02-21 13:15:00
6:35 AM,32.0,32.0,100,29.99,4.0,NW,3.5,-,N/A,,Clear,320,2013-02-21 13:35:00
6:55 AM,32.0,32.0,100,29.99,2.0,West,3.5,-,N/A,,Clear,260,2013-02-21 13:55:00
7:15 AM,32.0,32.0,100,30.00,2.5,Calm,Calm,-,N/A,,Clear,0,2013-02-21 14:15:00
7:35 AM,33.8,33.8,100,30.01,3.0,WNW,4.6,-,N/A,,Clear,300,2013-02-21 14:35:00
8:15 AM,37.4,37.4,100,30.02,7.0,West,3.5,-,N/A,,Clear,270,2013-02-21 15:15:00
8:35 AM,39.2,39.2,100,30.03,8.0,WSW,3.5,-,N/A,,Clear,250,2013-02-21 15:35:00
8:55 AM,44.6,39.2,81,30.03,10.0,East,13.8,-,N/A,,Clear,80,2013-02-21 15:55:00
9:15 AM,44.6,37.4,76,30.04,10.0,East,15.0,-,N/A,,Clear,80,2013-02-21 16:15:00
9:35 AM,46.4,37.4,71,30.04,10.0,East,13.8,-,N/A,,Clear,90,2013-02-21 16:35:00
9:55 AM,46.4,37.4,71,30.04,10.0,East,13.8,-,N/A,,Clear,80,2013-02-21 16:55:00
10:15 AM,48.2,35.6,62,30.04,10.0,East,13.8,-,N/A,,Clear,90,2013-02-21 17:15:00
10:35 AM,48.2,35.6,62,30.05,1.8,East,12.7,19.6,N/A,,Clear,90,2013-02-21 17:35:00
10:55 AM,-9999,-9999,N/A,-9999,-9999.0,North,-9999.0,-,0.02,,Unknown,0,2013-02-21 17:55:00
11:15 AM,50.0,35.6,58,30.04,10.0,East,10.4,-,N/A,,Unknown,100,2013-02-21 18:15:00
12:35 PM,51.8,35.6,54,30.03,10.0,SE,6.9,-,N/A,,Clear,130,2013-02-21 19:35:00
12:55 PM,53.6,33.8,47,30.02,10.0,SE,8.1,-,N/A,,Partly Cloudy,130,2013-02-21 19:55:00
1:15 PM,53.6,33.8,47,30.00,10.0,East,5.8,-,N/A,,Partly Cloudy,90,2013-02-21 20:15:00
1:35 PM,53.6,32.0,44,30.00,10.0,Calm,Calm,-,N/A,,Partly Cloudy,0,2013-02-21 20:35:00
1:55 PM,53.6,32.0,44,29.99,10.0,ESE,4.6,-,N/A,,Clear,110,2013-02-21 20:55:00
2:15 PM,55.4,32.0,41,29.99,10.0,East,5.8,-,N/A,,Clear,80,2013-02-21 21:15:00
2:35 PM,53.6,32.0,44,29.98,10.0,Calm,Calm,-,N/A,,Mostly Cloudy,0,2013-02-21 21:35:00
2:55 PM,53.6,32.0,44,29.98,10.0,SW,3.5,-,N/A,,Mostly Cloudy,230,2013-02-21 21:55:00
3:15 PM,55.4,32.0,41,29.98,10.0,Calm,Calm,-,N/A,,Mostly Cloudy,0,2013-02-21 22:15:00
3:35 PM,55.4,32.0,41,29.97,10.0,North,5.8,-,N/A,,Mostly Cloudy,10,2013-02-21 22:35:00
3:55 PM,55.4,32.0,41,29.96,10.0,Calm,Calm,-,N/A,,Scattered Clouds,0,2013-02-21 22:55:00
4:15 PM,55.4,32.0,41,29.96,10.0,Calm,Calm,-,N/A,,Partly Cloudy,0,2013-02-21 23:15:00
4:35 PM,55.4,30.2,38,29.95,10.0,NW,3.5,-,N/A,,Clear,320,2013-02-21 23:35:00
4:55 PM,55.4,28.4,36,29.95,10.0,WSW,3.5,-,N/A,,Clear,250,2013-02-21 23:55:00
5:15 PM,55.4,28.4,36,29.95,10.0,West,4.6,-,N/A,,Clear,260,2013-02-22 00:15:00
5:35 PM,55.4,28.4,36,29.94,10.0,North,3.5,-,N/A,,Clear,10,2013-02-22 00:35:00
5:55 PM,55.4,28.4,36,29.95,10.0,NE,4.6,-,N/A,,Clear,40,2013-02-22 00:55:00
6:15 PM,55.4,30.2,38,29.96,10.0,Calm,Calm,-,N/A,,Mostly Cloudy,0,2013-02-22 01:15:00
6:35 PM,53.6,30.2,41,29.97,10.0,NW,3.5,-,N/A,,Overcast,320,2013-02-22 01:35:00
6:55 PM,53.6,32.0,44,29.98,10.0,NNW,3.5,-,N/A,,Overcast,330,2013-02-22 01:55:00
7:15 PM,53.6,32.0,44,29.98,10.0,NNW,3.5,-,N/A,,Overcast,340,2013-02-22 02:15:00
7:35 PM,53.6,32.0,44,29.99,10.0,Calm,Calm,-,N/A,,Overcast,0,2013-02-22 02:35:00
8:15 PM,53.6,32.0,44,30.00,10.0,Calm,Calm,-,N/A,,Overcast,0,2013-02-22 03:15:00
8:35 PM,50.0,35.6,58,30.01,10.0,North,11.5,-,N/A,,Overcast,350,2013-02-22 03:35:00
8:55 PM,50.0,35.6,58,30.02,10.0,North,10.4,-,N/A,,Overcast,350,2013-02-22 03:55:00
9:15 PM,50.0,35.6,58,30.02,10.0,North,9.2,-,N/A,,Overcast,360,2013-02-22 04:15:00
9:35 PM,50.0,35.6,58,30.02,10.0,NNE,6.9,-,N/A,,Overcast,20,2013-02-22 04:35:00
9:55 PM,48.2,35.6,62,30.02,10.0,North,5.8,-,N/A,,Mostly Cloudy,10,2013-02-22 04:55:00
10:15 PM,46.4,35.6,66,30.02,10.0,North,6.9,-,N/A,,Mostly Cloudy,360,2013-02-22 05:15:00
10:35 PM,46.4,35.6,66,30.02,10.0,NNW,5.8,-,N/A,,Scattered Clouds,340,2013-02-22 05:35:00
10:55 PM,44.6,37.4,76,30.02,10.0,NNW,8.1,-,N/A,,Clear,330,2013-02-22 05:55:00
11:15 PM,44.6,37.4,76,30.03,10.0,North,5.8,-,N/A,,Partly Cloudy,350,2013-02-22 06:15:00
11:35 PM,44.6,39.2,81,30.03,10.0,Calm,Calm,-,N/A,,Partly Cloudy,0,2013-02-22 06:35:00
11:55 PM,44.6,39.2,81,30.03,10.0,WNW,4.6,-,N/A,,Partly Cloudy,290,2013-02-22 06:55:00